Location: Molveno
(46.1500°N, 10.9667°E)
Time: 17:11:58
(UTC+00:00)

ATLAS CENTAUR R/B - Pass Details

Date: 05 July 2020
Orbit: 475 x 672 km, 64.7° (Epoch: 13 July)

Event Time Altitude Azimuth Distance (km) Brightness Sun altitude
Rises 20:13:27 0° 330° (NNW) 2,585 6.7 -9.1°
Reaches altitude 10° 20:15:52 10° 343° (NNW) 1,678 5.0 -9.4°
Maximum altitude 20:19:05 27° 43° (NE) 947 2.6 -9.8°
Drops below altitude 10° 20:22:15 10° 103° (ESE) 1,644 3.3 -10.2°
Enters shadow 20:22:16 10° 103° (ESE) 1,650 3.3 -10.2°
